Вернуться в каталог

THORAD AGENA D DEB

АктивенPO
NORAD 4856·DEBRIS·🇺🇸 United States

Запущен Apr 8, 1970 с Vandenberg Space Force Base

Loading…

Ближайшие Пролёты (ближайшие 24 часа)

TLE

СвежийSource: Space-Track

Эпоха: Sep 14, 2026, 01:52 UTC

1 04856U 70025EL  26257.07842887  .00000329  00000-0  19061-3 0  9997
2 04856  99.7487  28.5105 0153153  77.3499 284.4744 14.10601678882945

Отслеживайте THORAD AGENA D DEB в реальном времени с AllMySat

Download on the App Store